EXPRESS AMU-3

Last updated on Mon Jun 22 2026 00:03:07 GMT+0000 (Coordinated Universal Time)

1 50002U 21123B 26171.96648715 .00000000 00000+0 00000+0 0 9997 2 50002 0.0209 335.7514 0000400 303.9567 80.2873 1.00269559 7074
UTC large
Height (km)
Speed (km/s)
/
Latitude / Longitude
Inclination (degrees)
Orbital Period (minutes)
Azimuth
Elevation
Range (km)
Doppler Factor

Next 0 passes for location: London (51.5072 / 0.1276)

No passes found over London.
EXPRESS AMU-3